QPF
0.01 0.00 0.00 0.00 0.00 0.00 0.00 0.00 0.00 0.00 0.00 0.00 0.00 0.00 0.00 0.00 0.00 0.00 0.00 0.00 0.00 0.00 0.00 0.00 0.00 0.00 0.00 0.00 0.00 0.01 0.00 0.01 0.02 0.02 0.01 0.00 0.00 0.00 0.00 0.02 0.06 0.01 0.05
0.00 0.00 0.00 0.00 0.00 0.00 0.00 0.00 0.00 0.00 0.00 0.00 0.00 0.00 0.00 0.00 0.00 0.00 0.00 0.00 0.01 0.01 0.01 0.01 0.00 0.01 0.01 0.01 0.02 0.01 0.01 0.01 0.02 0.01 0.00 0.00 0.00 0.00 0.00 0.01 0.05 0.00 0.02
0.00 0.00 0.00 0.00 0.00 0.00 0.00 0.00 0.00 0.00 0.00 0.00 0.00 0.00 0.00 0.00 0.00 0.00 0.00 0.00 0.01 0.01 0.01 0.03 0.00 0.00 0.00 0.00 0.00 0.00 0.00 0.00 0.00 0.00 0.02 0.00 0.00 0.00 0.00 0.00 0.00 0.00 0.00
0.00 0.00 0.00 0.00 0.00 0.00 0.00 0.00 0.00 0.00 0.00 0.00 0.00 0.00 0.00 0.00 0.00 0.00 0.00 0.00 0.00 0.02 0.01 0.04 0.01 0.00 0.00 0.00 0.01 0.03 0.05 0.01 0.00 0.00 0.01 0.00 0.00 0.00 0.00 0.00 0.00 0.00 0.00
0.00 0.00 0.00 0.00 0.00 0.00 0.00 0.00 0.00 0.00 0.00 0.00 0.00 0.00 0.00 0.00 0.00 0.00 0.02 0.01 0.00 0.00 0.01 0.02 0.03 0.01 0.00 0.02 0.02 0.05 0.02 0.00 0.02 0.03 0.03 0.00 0.00 0.00 0.00 0.00 0.00 0.00 0.00
0.00 0.00 0.00 0.00 0.00 0.00 0.00 0.00 0.00 0.00 0.00 0.01 0.00 0.00 0.00 0.00 0.01 0.01 0.00 0.00 0.00 0.02 0.00 0.00 0.01 0.01 0.00 0.01 0.02 0.00 0.00 0.01 0.01 0.00 0.00 0.00 0.00 0.00 0.00 0.00 0.00 0.00 0.00
0.00 0.00 0.00 0.00 0.00 0.00 0.00 0.00 0.00 0.00 0.00 0.00 0.00 0.00 0.00 0.00 0.00 0.00 0.00 0.00 0.00 0.00 0.01 0.00 0.00 0.02 0.00 0.00 0.00 0.00 0.00 0.01 0.02 0.00 0.00 0.00 0.00 0.00 0.00 0.00 0.00 0.00 0.00
0.00 0.00 0.00 0.00 0.00 0.00 0.00 0.00 0.00 0.00 0.00 0.00 0.00 0.00 0.00 0.00 0.00 0.00 0.00 0.00 0.00 0.03 0.06 0.04 0.00 0.00 0.00 0.00 0.00 0.00 0.00 0.00 0.00 0.00 0.00 0.00 0.00 0.00 0.00 0.00 0.00 0.00 0.00
0.00 0.00 0.00 0.00 0.00 0.00 0.00 0.00 0.00 0.00 0.00 0.00 0.00 0.00 0.00 0.00 0.00 0.00 0.00 0.00 0.00 0.00 0.01 0.07 0.07 0.03 0.00 0.00 0.00 0.00 0.00 0.00 0.01 0.02 0.00 0.00 0.00 0.00 0.00 0.00 0.00 0.00 0.00
0.00 0.00 0.00 0.00 0.00 0.00 0.00 0.00 0.00 0.00 0.00 0.00 0.00 0.01 0.02 0.02 0.03 0.00 0.00 0.00 0.01 0.01 0.04 0.02 0.00 0.01 0.01 0.00 0.00 0.00 0.00 0.00 0.00 0.02 0.00 0.00 0.00 0.00 0.00 0.00 0.00 0.00 0.00
0.00 0.00 0.00 0.00 0.00 0.00 0.00 0.00 0.00 0.01 0.01 0.01 0.00 0.00 0.01 0.04 0.16 0.06 0.00 0.00 0.00 0.01 0.01 0.02 0.04 0.00 0.01 0.00 0.00 0.00 0.00 0.00 0.00 0.00 0.02 0.05 0.00 0.00 0.00 0.01 0.00 0.00 0.00
0.00 0.00 0.00 0.00 0.00 0.00 0.00 0.01 0.03 0.08 0.08 0.03 0.00 0.00 0.00 0.00 0.01 0.01 0.00 0.00 0.00 0.00 0.00 0.00 0.03 0.01 0.00 0.00 0.00 0.00 0.00 0.00 0.00 0.00 0.01 0.03 0.00 0.00 0.00 0.00 0.02 0.01 0.00
0.00 0.00 0.00 0.00 0.00 0.00 0.00 0.04 0.04 0.10 0.04 0.00 0.00 0.00 0.00 0.00 0.00 0.00 0.00 0.00 0.00 0.00 0.00 0.04 0.04 0.00 0.00 0.00 0.00 0.00 0.00 0.00 0.00 0.00 0.00 0.00 0.00 0.00 0.00 0.00 0.00 0.00 0.00
0.00 0.00 0.00 0.00 0.00 0.00 0.00 0.02 0.02 0.02 0.00 0.00 0.00 0.01 0.00 0.00 0.02 0.00 0.00 0.00 0.00 0.00 0.00 0.03 0.02 0.08 0.00 0.00 0.00 0.00 0.00 0.00 0.00 0.00 0.00 0.00 0.00 0.00 0.00 0.00 0.00 0.00 0.00
0.00 0.00 0.00 0.00 0.00 0.00 0.00 0.00 0.03 0.03 0.00 0.00 0.00 0.00 0.00 0.02 0.06 0.01 0.00 0.00 0.00 0.00 0.00 0.03 0.05 0.12 0.11 0.00 0.00 0.00 0.00 0.00 0.00 0.00 0.00 0.00 0.00 0.00 0.00 0.00 0.00 0.00 0.00
0.00 0.00 0.00 0.00 0.00 0.00 0.00 0.01 0.03 0.04 0.01 0.00 0.00 0.00 0.00 0.00 0.00 0.00 0.00 0.00 0.00 0.00 0.01 0.02 0.05 0.03 0.02 0.00 0.00 0.00 0.00 0.00 0.00 0.00 0.00 0.00 0.00 0.00 0.00 0.00 0.00 0.01 0.00
0.00 0.00 0.00 0.00 0.00 0.00 0.00 0.01 0.04 0.00 0.00 0.01 0.01 0.00 0.02 0.01 0.02 0.00 0.00 0.00 0.00 0.00 0.04 0.00 0.02 0.10 0.19 0.04 0.01 0.00 0.00 0.00 0.00 0.00 0.00 0.00 0.00 0.00 0.00 0.00 0.00 0.00 0.00
0.00 0.00 0.00 0.00 0.00 0.00 0.00 0.01 0.00 0.01 0.03 0.04 0.04 0.00 0.03 0.02 0.00 0.01 0.00 0.00 0.00 0.00 0.04 0.05 0.07 0.10 0.18 0.08 0.01 0.00 0.00 0.00 0.00 0.00 0.00 0.00 0.00 0.00 0.00 0.00 0.00 0.00 0.00
0.00 0.00 0.00 0.00 0.00 0.00 0.00 0.13 0.09 0.02 0.01 0.04 0.08 0.04 0.02 0.01 0.01 0.00 0.00 0.00 0.00 0.03 0.09 0.03 0.00 0.01 0.09 0.05 0.01 0.00 0.00 0.00 0.00 0.00 0.00 0.00 0.00 0.00 0.00 0.00 0.00 0.00 0.00
0.00 0.00 0.00 0.00 0.00 0.00 0.00 0.08 0.11 0.10 0.11 0.15 0.15 0.04 0.05 0.01 0.03 0.03 0.01 0.01 0.05 0.13 0.12 0.06 0.06 0.03 0.11 0.04 0.01 0.01 0.00 0.00 0.00 0.00 0.00 0.00 0.00 0.00 0.00 0.00 0.00 0.00 0.00
0.00 0.00 0.00 0.00 0.00 0.00 0.00 0.06 0.16 0.15 0.16 0.17 0.08 0.02 0.01 0.00 0.04 0.11 0.12 0.14 0.13 0.10 0.09 0.08 0.09 0.08 0.04 0.07 0.04 0.00 0.00 0.00 0.00 0.00 0.00 0.00 0.00 0.00 0.00 0.00 0.00 0.00 0.00
0.00 0.00 0.00 0.00 0.00 0.00 0.00 0.00 0.03 0.13 0.11 0.10 0.04 0.06 0.02 0.00 0.01 0.10 0.09 0.14 0.12 0.05 0.05 0.06 0.14 0.14 0.08 0.13 0.07 0.02 0.00 0.03 0.02 0.00 0.00 0.00 0.00 0.00 0.00 0.00 0.00 0.00 0.00
0.00 0.00 0.00 0.00 0.00 0.00 0.00 0.00 0.00 0.05 0.20 0.27 0.21 0.11 0.03 0.01 0.03 0.05 0.09 0.13 0.15 0.10 0.13 0.14 0.16 0.08 0.09 0.24 0.11 0.05 0.09 0.11 0.04 0.02 0.03 0.00 0.00 0.00 0.00 0.00 0.00 0.00 0.00
0.00 0.00 0.00 0.00 0.00 0.00 0.00 0.00 0.09 0.15 0.16 0.10 0.03 0.01 0.00 0.02 0.06 0.04 0.02 0.01 0.09 0.05 0.01 0.00 0.00 0.09 0.22 0.18 0.16 0.04 0.05 0.06 0.04 0.05 0.03 0.02 0.00 0.00 0.00 0.00 0.00 0.00 0.00
0.00 0.00 0.00 0.00 0.00 0.00 0.00 0.00 0.04 0.03 0.04 0.04 0.01 0.13 0.03 0.05 0.05 0.05 0.03 0.01 0.00 0.00 0.00 0.00 0.00 0.05 0.15 0.22 0.15 0.12 0.05 0.00 0.00 0.03 0.01 0.02 0.07 0.01 0.00 0.00 0.00 0.00 0.00
0.00 0.00 0.00 0.00 0.00 0.00 0.00 0.00 0.00 0.01 0.06 0.07 0.12 0.05 0.04 0.03 0.09 0.07 0.06 0.01 0.00 0.00 0.00 0.02 0.06 0.04 0.12 0.17 0.11 0.01 0.00 0.00 0.00 0.01 0.03 0.02 0.03 0.00 0.00 0.00 0.00 0.00 0.00
MSLP
1011.81 1012.79 1013.45 1013.59 1013.87 1014.20 1014.50 1014.68 1014.75 1014.94 1015.17 1015.34 1015.51 1015.61 1015.74 1015.86 1016.00 1015.98 1016.10 1016.21 1016.22 1016.29 1016.32 1016.50 1016.63 1016.79 1016.88 1016.94 1017.01 1017.07 1017.03 1017.08 1017.31 1017.49 1017.72 1017.91 1018.00 1018.02 1018.03 1017.94 1017.66 1018.04 1018.54
1011.43 1012.65 1013.62 1013.80 1014.01 1014.31 1014.65 1014.94 1015.03 1015.12 1015.32 1015.54 1015.75 1015.82 1015.93 1016.08 1016.18 1016.23 1016.32 1016.37 1016.49 1016.53 1016.57 1016.75 1016.84 1017.06 1017.26 1017.29 1017.38 1017.38 1017.47 1017.62 1017.45 1017.46 1017.77 1018.15 1018.38 1018.43 1018.41 1018.25 1017.96 1018.67 1018.88
1011.37 1012.63 1013.45 1014.02 1014.22 1014.50 1014.80 1015.18 1015.39 1015.41 1015.54 1015.74 1015.91 1016.08 1016.16 1016.31 1016.42 1016.52 1016.51 1016.62 1016.72 1016.82 1016.94 1017.06 1017.19 1017.29 1017.43 1017.59 1017.65 1017.76 1017.75 1017.64 1017.42 1017.22 1017.06 1016.80 1018.16 1018.75 1018.73 1018.74 1018.79 1018.95 1019.03
1011.06 1012.28 1013.26 1014.28 1014.45 1014.72 1014.98 1015.33 1015.59 1015.78 1015.88 1015.98 1016.13 1016.30 1016.37 1016.46 1016.55 1016.72 1016.74 1016.91 1017.07 1017.17 1017.25 1017.42 1017.47 1017.63 1017.69 1017.82 1017.94 1018.01 1018.13 1017.64 1017.22 1016.40 1015.94 1016.04 1017.70 1018.96 1019.06 1019.08 1019.10 1019.16 1019.27
1010.95 1011.69 1013.62 1014.46 1014.67 1014.96 1015.19 1015.53 1015.76 1016.00 1016.20 1016.24 1016.31 1016.47 1016.59 1016.66 1016.72 1016.85 1016.95 1017.10 1017.33 1017.46 1017.64 1017.84 1017.84 1017.94 1017.99 1018.20 1018.33 1018.51 1018.33 1018.02 1017.21 1016.30 1015.90 1015.91 1017.19 1018.92 1019.21 1019.27 1019.34 1019.41 1019.45
1010.33 1011.44 1014.25 1014.58 1014.87 1015.14 1015.41 1015.75 1015.96 1016.16 1016.31 1016.44 1016.56 1016.69 1016.87 1016.95 1017.00 1017.11 1017.26 1017.39 1017.54 1017.76 1017.92 1017.95 1018.12 1018.09 1018.24 1018.39 1018.50 1018.56 1018.52 1018.10 1017.66 1016.09 1016.25 1016.75 1017.26 1018.89 1019.23 1019.25 1019.41 1019.55 1019.70
1010.05 1012.24 1014.00 1014.78 1015.05 1015.31 1015.59 1015.92 1016.17 1016.36 1016.54 1016.70 1016.86 1017.03 1017.18 1017.27 1017.31 1017.34 1017.44 1017.52 1017.71 1017.84 1017.97 1018.17 1018.25 1018.31 1018.35 1018.50 1018.47 1018.58 1018.46 1018.29 1017.10 1016.81 1016.70 1016.69 1017.99 1018.85 1019.21 1019.41 1019.60 1019.67 1019.80
1010.08 1012.20 1013.97 1015.00 1015.28 1015.52 1015.85 1016.23 1016.44 1016.59 1016.78 1016.95 1017.14 1017.23 1017.32 1017.37 1017.40 1017.47 1017.57 1017.69 1017.82 1017.96 1018.16 1018.26 1018.28 1018.40 1018.48 1018.54 1018.54 1018.55 1018.45 1018.14 1016.78 1015.74 1015.94 1016.00 1017.90 1018.67 1019.12 1019.45 1019.68 1019.78 1019.89
1010.27 1011.89 1013.62 1014.51 1015.25 1015.69 1016.06 1016.42 1016.67 1016.82 1016.98 1017.12 1017.22 1017.29 1017.31 1017.27 1017.29 1017.32 1017.55 1017.74 1017.90 1017.99 1018.15 1018.27 1018.30 1018.41 1018.48 1018.58 1018.60 1018.58 1018.39 1017.79 1016.23 1016.47 1015.19 1015.71 1017.20 1018.17 1018.94 1019.39 1019.70 1019.83 1019.99
1010.40 1011.60 1013.01 1013.77 1014.82 1015.28 1015.84 1016.51 1016.83 1017.04 1017.17 1017.21 1017.23 1017.21 1017.07 1017.25 1017.76 1017.28 1017.13 1017.53 1017.87 1017.98 1018.03 1018.10 1018.19 1018.36 1018.50 1018.54 1018.59 1018.59 1018.34 1017.53 1016.68 1015.33 1016.30 1017.17 1017.51 1017.69 1018.77 1019.26 1019.64 1019.85 1019.98
1010.65 1011.22 1012.28 1012.99 1014.12 1014.75 1015.26 1016.15 1016.85 1017.08 1017.21 1017.28 1017.47 1017.45 1017.29 1017.54 1017.03 1017.95 1016.76 1017.33 1017.79 1017.94 1017.96 1017.92 1018.02 1018.11 1018.29 1018.39 1018.35 1018.30 1018.19 1017.11 1015.13 1015.91 1016.83 1017.67 1018.01 1017.74 1018.62 1019.03 1019.51 1019.80 1019.91
1010.79 1011.07 1012.03 1012.47 1013.18 1013.97 1014.41 1015.54 1016.24 1016.76 1016.95 1017.62 1017.72 1017.60 1017.58 1017.85 1017.80 1017.03 1016.55 1017.21 1017.59 1017.68 1017.65 1017.62 1017.87 1017.96 1018.01 1017.01 1017.21 1017.80 1017.28 1016.54 1015.46 1014.70 1016.22 1017.67 1016.78 1017.98 1018.67 1019.00 1019.35 1019.57 1019.66
1010.98 1011.13 1011.87 1012.43 1012.90 1013.71 1014.09 1015.53 1015.60 1016.86 1017.37 1017.38 1017.67 1017.70 1017.78 1017.47 1016.71 1016.67 1016.14 1016.31 1016.60 1017.25 1016.62 1016.93 1017.20 1017.16 1016.46 1016.08 1015.85 1015.96 1015.85 1015.63 1015.66 1015.61 1015.40 1016.30 1017.23 1018.08 1018.61 1018.88 1019.06 1019.19 1019.30
1010.70 1011.13 1011.70 1012.24 1013.03 1013.41 1014.16 1014.68 1016.03 1016.92 1017.24 1017.37 1017.49 1017.72 1017.90 1017.78 1017.04 1016.76 1016.37 1017.22 1016.90 1016.42 1015.91 1015.95 1016.12 1016.68 1016.29 1016.82 1015.46 1015.47 1015.10 1015.23 1015.46 1015.02 1015.65 1016.48 1017.38 1017.95 1018.41 1018.64 1018.71 1018.81 1018.95
1010.39 1011.02 1011.54 1012.11 1013.22 1013.58 1014.22 1014.72 1015.97 1016.75 1017.16 1016.91 1017.56 1017.36 1017.68 1017.32 1017.33 1017.17 1016.52 1016.39 1016.29 1016.26 1015.79 1016.17 1016.07 1016.73 1017.03 1016.12 1015.89 1015.53 1015.48 1015.21 1015.15 1014.89 1015.61 1016.45 1016.92 1017.49 1017.98 1018.23 1018.34 1018.42 1018.56
1009.97 1010.68 1011.48 1012.26 1013.06 1013.81 1014.41 1014.94 1016.11 1016.57 1016.39 1016.08 1016.50 1016.83 1017.04 1016.90 1017.53 1017.32 1016.27 1016.27 1016.25 1015.85 1015.63 1016.32 1016.39 1016.15 1016.61 1015.75 1015.93 1015.25 1015.23 1014.99 1015.13 1015.24 1015.43 1016.14 1016.28 1016.80 1017.36 1017.74 1017.80 1017.91 1018.03
1009.80 1010.40 1011.13 1011.85 1012.68 1013.86 1014.55 1015.06 1015.83 1015.80 1015.79 1015.60 1015.66 1015.92 1016.22 1016.30 1016.64 1016.64 1016.31 1016.34 1016.12 1015.36 1015.70 1016.15 1016.11 1016.24 1016.55 1016.45 1015.72 1015.20 1015.07 1014.86 1014.98 1015.43 1014.89 1015.13 1015.75 1016.10 1016.39 1016.89 1017.17 1017.34 1017.50
1009.56 1010.33 1011.16 1011.50 1011.98 1012.97 1013.63 1014.39 1014.78 1014.83 1015.02 1015.38 1015.66 1015.58 1015.81 1016.01 1015.93 1016.02 1016.30 1016.08 1015.49 1015.16 1015.26 1016.02 1016.30 1016.60 1016.80 1016.66 1015.52 1014.97 1014.63 1014.22 1014.56 1014.81 1014.80 1014.65 1014.56 1014.59 1015.57 1015.96 1016.24 1016.57 1016.86
1009.40 1010.18 1010.96 1011.36 1011.69 1012.27 1013.12 1013.99 1014.36 1014.23 1014.78 1014.64 1015.18 1015.21 1014.83 1015.34 1015.35 1015.67 1015.42 1015.12 1014.90 1014.77 1015.70 1016.11 1016.24 1016.40 1016.38 1016.29 1016.02 1015.13 1014.57 1014.79 1014.52 1014.09 1013.78 1014.02 1014.05 1013.95 1014.40 1014.76 1015.47 1015.77 1016.10
1008.87 1009.80 1010.66 1011.14 1011.72 1012.12 1012.63 1013.46 1014.14 1014.42 1014.19 1014.51 1014.75 1014.85 1014.86 1014.97 1014.79 1015.33 1014.82 1014.57 1014.78 1015.17 1015.53 1015.74 1015.94 1015.90 1015.84 1015.43 1014.99 1015.02 1014.67 1014.35 1014.20 1013.71 1013.63 1014.22 1013.40 1013.12 1013.19 1014.08 1014.78 1015.17 1015.29
1008.24 1009.29 1010.29 1010.91 1011.44 1012.01 1012.41 1012.62 1013.81 1013.92 1014.22 1014.35 1014.53 1013.88 1013.59 1013.95 1014.18 1014.81 1014.93 1014.79 1014.89 1014.98 1015.09 1015.41 1015.47 1015.59 1015.20 1015.07 1015.20 1015.11 1015.10 1014.21 1013.59 1014.01 1013.45 1013.27 1012.63 1013.02 1012.56 1012.66 1013.22 1013.23 1013.82
1007.80 1008.82 1009.80 1010.54 1011.20 1011.86 1012.03 1012.29 1012.71 1013.29 1013.62 1013.66 1013.24 1013.17 1013.30 1013.66 1013.91 1014.39 1014.58 1014.67 1014.85 1014.71 1014.76 1014.95 1015.17 1015.47 1015.71 1015.36 1015.21 1014.92 1014.93 1013.54 1013.78 1013.70 1012.63 1012.69 1012.22 1011.96 1012.42 1012.26 1012.42 1012.70 1012.90
1006.74 1008.09 1009.09 1010.01 1010.75 1011.47 1011.80 1011.96 1012.31 1012.81 1013.15 1013.35 1013.34 1013.26 1013.25 1013.17 1013.30 1013.60 1013.79 1014.11 1014.33 1014.33 1014.56 1014.86 1014.94 1015.48 1015.74 1015.33 1015.27 1014.42 1014.25 1014.03 1014.91 1014.90 1014.41 1012.38 1012.96 1012.32 1011.87 1011.52 1011.66 1012.03 1012.56
1006.26 1007.30 1008.35 1009.31 1010.20 1010.90 1011.49 1011.38 1011.70 1012.42 1012.76 1013.02 1013.09 1012.36 1012.64 1012.73 1013.09 1013.29 1013.26 1013.20 1013.54 1014.14 1014.44 1014.68 1014.63 1014.97 1015.22 1015.33 1015.09 1014.44 1013.56 1014.50 1014.78 1014.93 1014.54 1014.51 1012.97 1012.33 1012.18 1011.47 1011.17 1011.29 1011.85
1005.39 1006.37 1007.52 1008.84 1009.69 1010.16 1010.83 1011.17 1011.27 1011.91 1011.65 1012.22 1012.16 1012.53 1012.71 1012.69 1012.65 1012.67 1012.76 1012.81 1013.32 1013.44 1013.55 1014.09 1014.37 1014.33 1014.55 1014.90 1014.67 1014.33 1014.43 1014.80 1015.13 1015.36 1015.48 1014.58 1013.86 1014.22 1013.08 1012.44 1010.89 1010.41 1010.53
1004.91 1005.81 1006.96 1008.36 1009.26 1010.05 1010.41 1010.90 1011.13 1011.06 1011.57 1011.80 1012.15 1012.42 1012.34 1012.14 1012.14 1012.55 1012.43 1012.53 1012.74 1013.12 1012.99 1013.13 1013.62 1013.79 1013.79 1013.88 1014.23 1014.28 1014.42 1014.74 1014.53 1014.74 1014.95 1014.87 1014.25 1013.40 1013.12 1012.14 1010.36 1009.62 1009.54
Thickness
5785 5779 5774 5773 5769 5765 5763 5763 5764 5762 5760 5759 5758 5757 5756 5754 5754 5754 5752 5750 5750 5749 5749 5748 5746 5745 5743 5743 5743 5742 5743 5743 5739 5737 5736 5734 5734 5733 5733 5734 5737 5733 5729
5793 5781 5774 5772 5770 5766 5763 5761 5761 5762 5760 5758 5757 5756 5755 5754 5753 5752 5751 5749 5748 5748 5748 5746 5745 5743 5741 5741 5740 5740 5739 5738 5740 5739 5736 5732 5731 5730 5731 5733 5736 5730 5729
5793 5783 5776 5771 5769 5766 5763 5760 5759 5760 5759 5758 5756 5754 5753 5752 5751 5751 5750 5749 5748 5746 5746 5745 5744 5743 5742 5740 5739 5738 5737 5738 5740 5742 5742 5743 5732 5728 5729 5730 5731 5729 5729
5797 5786 5777 5770 5768 5766 5764 5760 5758 5757 5757 5757 5755 5753 5753 5751 5750 5749 5749 5748 5746 5745 5744 5743 5742 5741 5740 5740 5739 5738 5736 5740 5743 5750 5746 5749 5736 5727 5726 5726 5728 5728 5728
5799 5792 5776 5770 5768 5766 5763 5760 5758 5757 5755 5755 5755 5752 5751 5750 5749 5749 5748 5747 5744 5743 5741 5739 5739 5738 5738 5736 5735 5733 5734 5736 5743 5749 5733 5751 5741 5729 5726 5726 5726 5726 5726
5806 5795 5773 5770 5768 5766 5763 5759 5758 5756 5754 5753 5753 5751 5749 5748 5748 5746 5745 5744 5743 5741 5740 5738 5736 5737 5736 5734 5732 5732 5731 5735 5738 5751 5749 5746 5742 5730 5727 5727 5726 5725 5724
5808 5789 5774 5769 5766 5764 5761 5758 5757 5755 5754 5752 5750 5749 5747 5746 5746 5746 5744 5744 5742 5741 5739 5737 5736 5736 5734 5732 5733 5731 5732 5733 5742 5743 5743 5745 5737 5730 5727 5726 5725 5724 5724
5807 5789 5775 5767 5765 5763 5760 5757 5755 5754 5753 5752 5750 5748 5747 5746 5746 5746 5745 5743 5741 5740 5738 5737 5735 5735 5733 5732 5732 5731 5732 5734 5744 5752 5750 5750 5737 5731 5728 5725 5724 5724 5723
5806 5792 5777 5770 5765 5761 5759 5755 5754 5753 5751 5751 5750 5749 5749 5749 5749 5749 5746 5743 5740 5739 5738 5736 5736 5734 5733 5732 5732 5732 5733 5738 5749 5723 5758 5754 5745 5736 5729 5726 5724 5723 5722
5805 5795 5782 5775 5767 5763 5760 5755 5753 5751 5750 5751 5751 5750 5752 5749 5742 5750 5752 5746 5742 5740 5739 5738 5737 5735 5733 5732 5732 5732 5734 5740 5745 5727 5746 5740 5743 5741 5730 5726 5724 5722 5722
5801 5799 5789 5783 5773 5768 5765 5758 5753 5751 5749 5749 5748 5749 5751 5738 5730 5740 5756 5749 5744 5741 5740 5740 5739 5738 5735 5734 5733 5734 5735 5743 5763 5754 5741 5721 5736 5741 5731 5727 5723 5721 5721
5794 5797 5792 5788 5781 5775 5771 5764 5757 5753 5750 5746 5744 5745 5745 5740 5738 5750 5756 5750 5746 5744 5743 5743 5741 5739 5738 5744 5742 5738 5741 5747 5759 5767 5739 5739 5752 5737 5729 5726 5723 5722 5722
5795 5797 5794 5789 5785 5778 5774 5763 5760 5751 5748 5746 5743 5743 5743 5746 5750 5752 5756 5754 5752 5747 5750 5748 5745 5745 5750 5752 5755 5752 5754 5755 5755 5759 5761 5754 5744 5733 5728 5726 5725 5724 5723
5798 5797 5796 5792 5784 5781 5774 5768 5758 5750 5747 5745 5744 5742 5740 5741 5747 5749 5753 5747 5748 5752 5757 5756 5754 5749 5752 5748 5756 5755 5759 5757 5757 5760 5754 5748 5739 5733 5728 5727 5727 5726 5725
5801 5799 5797 5794 5783 5778 5771 5766 5756 5749 5745 5745 5741 5742 5741 5742 5743 5745 5750 5752 5753 5753 5756 5754 5754 5748 5745 5751 5752 5754 5754 5756 5757 5759 5754 5747 5742 5737 5732 5729 5729 5729 5728
5807 5802 5799 5792 5785 5776 5769 5761 5755 5750 5749 5749 5745 5744 5744 5745 5741 5744 5752 5754 5753 5756 5757 5751 5749 5751 5748 5752 5751 5755 5755 5757 5756 5756 5753 5749 5748 5743 5737 5733 5732 5732 5732
5808 5806 5800 5797 5789 5777 5769 5762 5756 5756 5755 5754 5753 5752 5751 5750 5749 5749 5753 5754 5755 5759 5756 5751 5750 5748 5742 5744 5752 5756 5756 5758 5756 5754 5757 5756 5752 5750 5747 5741 5738 5736 5736
5811 5804 5800 5801 5796 5786 5779 5770 5765 5764 5762 5757 5756 5757 5757 5755 5755 5754 5753 5756 5759 5760 5759 5752 5749 5745 5741 5743 5752 5758 5761 5763 5760 5758 5758 5758 5760 5760 5754 5750 5747 5744 5741
5812 5805 5800 5800 5797 5793 5785 5774 5769 5770 5764 5765 5761 5761 5764 5760 5760 5757 5760 5762 5763 5763 5755 5751 5749 5747 5746 5745 5748 5756 5761 5758 5761 5763 5766 5765 5765 5766 5762 5760 5754 5751 5748
5818 5810 5804 5801 5797 5795 5789 5780 5773 5770 5771 5767 5765 5764 5764 5763 5763 5759 5763 5766 5764 5759 5755 5753 5750 5751 5751 5754 5756 5754 5759 5761 5763 5768 5769 5765 5769 5772 5771 5764 5758 5755 5755
5823 5814 5805 5800 5798 5795 5789 5783 5773 5771 5769 5768 5766 5772 5773 5770 5769 5764 5761 5762 5760 5759 5757 5754 5754 5750 5754 5756 5750 5750 5751 5759 5766 5762 5766 5769 5777 5772 5776 5775 5770 5770 5766
5825 5819 5810 5804 5800 5794 5792 5789 5785 5779 5775 5773 5775 5775 5774 5771 5769 5765 5763 5762 5759 5759 5759 5757 5754 5748 5747 5751 5747 5748 5736 5756 5758 5761 5771 5769 5777 5780 5776 5777 5776 5773 5772
5833 5824 5816 5809 5804 5797 5794 5792 5788 5783 5778 5772 5769 5774 5775 5774 5773 5770 5768 5765 5763 5761 5757 5753 5752 5747 5742 5746 5748 5751 5740 5742 5737 5741 5755 5772 5765 5775 5783 5783 5781 5778 5774
5838 5833 5823 5813 5806 5802 5797 5795 5788 5778 5773 5774 5774 5783 5780 5778 5775 5773 5772 5771 5768 5759 5753 5754 5753 5750 5746 5741 5747 5755 5760 5748 5740 5740 5744 5742 5766 5770 5773 5786 5788 5783 5778
5848 5839 5831 5819 5811 5807 5800 5796 5792 5783 5787 5782 5782 5777 5777 5778 5776 5775 5774 5773 5769 5767 5763 5757 5755 5756 5752 5746 5742 5749 5748 5745 5741 5734 5731 5746 5753 5742 5762 5768 5786 5791 5788
5853 5846 5836 5821 5811 5806 5803 5797 5792 5790 5785 5781 5778 5774 5776 5779 5780 5776 5774 5773 5770 5768 5768 5766 5760 5758 5758 5755 5750 5747 5743 5738 5739 5738 5734 5737 5744 5750 5755 5765 5785 5796 5795